TimeCDT,TemperatureF,Dew PointF,Humidity,Sea Level PressureIn,VisibilityMPH,Wind Direction,Wind SpeedMPH,Gust SpeedMPH,PrecipitationIn,Events,Conditions,WindDirDegrees,DateUTC
12:15 AM,51.8,33.8,50,29.98,10.0,South,13.8,23.0,N/A,,Clear,190,2012-10-09 05:15:00
12:35 AM,50.0,32.0,50,29.97,10.0,South,13.8,19.6,N/A,,Clear,190,2012-10-09 05:35:00
12:55 AM,50.0,32.0,50,29.96,10.0,South,13.8,-,N/A,,Clear,190,2012-10-09 05:55:00
1:15 AM,50.0,32.0,50,29.95,10.0,South,15.0,-,N/A,,Clear,190,2012-10-09 06:15:00
1:35 AM,48.2,33.8,58,29.94,10.0,South,16.1,-,N/A,,Clear,190,2012-10-09 06:35:00
1:55 AM,48.2,33.8,58,29.94,10.0,SSW,15.0,20.7,N/A,,Clear,200,2012-10-09 06:55:00
2:15 AM,48.2,33.8,58,29.93,10.0,South,16.1,-,N/A,,Clear,190,2012-10-09 07:15:00
2:55 AM,48.2,33.8,58,29.93,10.0,South,13.8,-,N/A,,Clear,190,2012-10-09 07:55:00
3:15 AM,48.2,33.8,58,29.92,10.0,SSW,16.1,19.6,N/A,,Clear,200,2012-10-09 08:15:00
3:35 AM,48.2,33.8,58,29.91,10.0,South,17.3,-,N/A,,Clear,190,2012-10-09 08:35:00
3:55 AM,48.2,33.8,58,29.90,10.0,South,16.1,-,N/A,,Clear,190,2012-10-09 08:55:00
4:15 AM,48.2,33.8,58,29.89,10.0,SSW,16.1,-,N/A,,Clear,200,2012-10-09 09:15:00
4:35 AM,48.2,33.8,58,29.89,10.0,SSW,17.3,23.0,N/A,,Clear,200,2012-10-09 09:35:00
4:55 AM,48.2,33.8,58,29.89,10.0,South,15.0,-,N/A,,Clear,190,2012-10-09 09:55:00
5:15 AM,48.2,33.8,58,29.89,10.0,SSW,15.0,23.0,N/A,,Clear,200,2012-10-09 10:15:00
5:35 AM,48.2,33.8,58,29.89,10.0,South,15.0,21.9,N/A,,Clear,190,2012-10-09 10:35:00
5:55 AM,48.2,33.8,58,29.89,10.0,South,13.8,-,N/A,,Clear,180,2012-10-09 10:55:00
6:15 AM,46.4,33.8,62,29.89,10.0,South,12.7,-,N/A,,Clear,180,2012-10-09 11:15:00
6:35 AM,46.4,33.8,62,29.89,10.0,South,12.7,-,N/A,,Clear,190,2012-10-09 11:35:00
6:55 AM,46.4,33.8,62,29.89,10.0,South,11.5,-,N/A,,Clear,180,2012-10-09 11:55:00
7:15 AM,46.4,33.8,62,29.89,10.0,South,11.5,-,N/A,,Clear,170,2012-10-09 12:15:00
7:35 AM,46.4,35.6,66,29.88,10.0,South,12.7,-,N/A,,Clear,180,2012-10-09 12:35:00
7:55 AM,46.4,35.6,66,29.89,10.0,South,11.5,-,N/A,,Clear,180,2012-10-09 12:55:00
8:15 AM,46.4,35.6,66,29.88,10.0,South,13.8,-,N/A,,Clear,180,2012-10-09 13:15:00
8:35 AM,48.2,37.4,66,29.88,10.0,South,15.0,20.7,N/A,,Clear,180,2012-10-09 13:35:00
8:55 AM,50.0,39.2,66,29.89,10.0,South,17.3,23.0,N/A,,Clear,190,2012-10-09 13:55:00
9:15 AM,51.8,39.2,62,29.88,10.0,South,19.6,24.2,N/A,,Clear,190,2012-10-09 14:15:00
9:35 AM,53.6,39.2,58,29.89,10.0,SSW,17.3,-,N/A,,Clear,200,2012-10-09 14:35:00
9:55 AM,53.6,41.0,62,29.89,10.0,South,19.6,24.2,N/A,,Clear,190,2012-10-09 14:55:00
10:15 AM,55.4,42.8,63,29.91,10.0,SSW,15.0,-,N/A,,Clear,200,2012-10-09 15:15:00
10:35 AM,57.2,42.8,59,29.91,10.0,SSW,17.3,-,N/A,,Clear,200,2012-10-09 15:35:00
10:55 AM,57.2,42.8,59,29.91,10.0,SSW,13.8,-,N/A,,Clear,210,2012-10-09 15:55:00
11:15 AM,59.0,44.6,59,29.91,10.0,SSW,9.2,-,N/A,,Clear,210,2012-10-09 16:15:00
11:35 AM,60.8,44.6,55,29.91,10.0,SSW,15.0,18.4,N/A,,Clear,210,2012-10-09 16:35:00
11:55 AM,60.8,44.6,55,29.91,10.0,West,12.7,17.3,N/A,,Clear,260,2012-10-09 16:55:00
12:15 PM,60.8,44.6,55,29.92,10.0,SSW,6.9,-,N/A,,Clear,210,2012-10-09 17:15:00
12:35 PM,62.6,44.6,52,29.92,10.0,WSW,8.1,-,N/A,,Clear,250,2012-10-09 17:35:00
12:55 PM,62.6,44.6,52,29.92,10.0,SSW,5.8,-,N/A,,Clear,210,2012-10-09 17:55:00
1:15 PM,64.4,44.6,49,29.91,10.0,WSW,10.4,-,N/A,,Clear,250,2012-10-09 18:15:00
1:35 PM,64.4,44.6,49,29.91,10.0,West,3.5,-,N/A,,Clear,270,2012-10-09 18:35:00
1:55 PM,64.4,44.6,49,29.91,10.0,NW,9.2,-,N/A,,Clear,310,2012-10-09 18:55:00
2:15 PM,64.4,44.6,49,29.91,10.0,WNW,5.8,-,N/A,,Clear,300,2012-10-09 19:15:00
2:35 PM,66.2,44.6,46,29.90,10.0,NNE,9.2,-,N/A,,Partly Cloudy,20,2012-10-09 19:35:00
2:55 PM,66.2,44.6,46,29.91,10.0,NNW,19.6,24.2,N/A,,Scattered Clouds,340,2012-10-09 19:55:00
3:15 PM,64.4,42.8,45,29.92,10.0,North,18.4,26.5,N/A,,Mostly Cloudy,360,2012-10-09 20:15:00
3:35 PM,64.4,42.8,45,29.94,10.0,North,19.6,23.0,N/A,,Overcast,10,2012-10-09 20:35:00
3:55 PM,64.4,42.8,45,29.94,10.0,NNE,17.3,25.3,N/A,,Mostly Cloudy,20,2012-10-09 20:55:00
4:15 PM,64.4,42.8,45,29.95,10.0,North,16.1,-,N/A,,Mostly Cloudy,360,2012-10-09 21:15:00
4:35 PM,64.4,42.8,45,29.96,10.0,North,15.0,20.7,N/A,,Mostly Cloudy,10,2012-10-09 21:35:00
4:55 PM,62.6,39.2,42,29.97,10.0,NNE,18.4,26.5,N/A,,Scattered Clouds,30,2012-10-09 21:55:00
5:15 PM,62.6,39.2,42,29.98,10.0,NNE,17.3,29.9,N/A,,Partly Cloudy,20,2012-10-09 22:15:00
5:35 PM,60.8,39.2,45,29.99,10.0,North,26.5,29.9,N/A,,Clear,10,2012-10-09 22:35:00
5:55 PM,59.0,39.2,48,30.01,10.0,NNE,19.6,31.1,N/A,,Clear,20,2012-10-09 22:55:00
6:15 PM,57.2,39.2,51,30.02,10.0,North,26.5,31.1,N/A,,Clear,10,2012-10-09 23:15:00
6:35 PM,55.4,39.2,54,30.03,10.0,NNE,15.0,26.5,N/A,,Clear,30,2012-10-09 23:35:00
6:55 PM,55.4,37.4,51,30.05,10.0,NNE,15.0,20.7,N/A,,Clear,20,2012-10-09 23:55:00
7:15 PM,53.6,37.4,54,30.05,10.0,NNE,11.5,-,N/A,,Clear,20,2012-10-10 00:15:00
7:35 PM,51.8,37.4,58,30.06,10.0,NNE,6.9,-,N/A,,Clear,30,2012-10-10 00:35:00
7:55 PM,50.0,35.6,58,30.07,10.0,NNE,5.8,-,N/A,,Clear,20,2012-10-10 00:55:00
8:15 PM,48.2,35.6,62,30.09,10.0,NNE,5.8,-,N/A,,Clear,20,2012-10-10 01:15:00
8:35 PM,48.2,35.6,62,30.10,10.0,North,4.6,-,N/A,,Clear,10,2012-10-10 01:35:00
8:55 PM,46.4,35.6,66,30.11,10.0,North,4.6,-,N/A,,Clear,350,2012-10-10 01:55:00
9:15 PM,44.6,33.8,66,30.13,10.0,North,8.1,-,N/A,,Clear,10,2012-10-10 02:15:00
9:35 PM,44.6,35.6,71,30.14,10.0,North,8.1,-,N/A,,Clear,10,2012-10-10 02:35:00
9:55 PM,46.4,33.8,62,30.14,10.0,NNE,8.1,-,N/A,,Clear,30,2012-10-10 02:55:00
10:15 PM,46.4,32.0,57,30.16,10.0,NNE,6.9,-,N/A,,Clear,30,2012-10-10 03:15:00
10:35 PM,44.6,30.2,57,30.16,10.0,NNE,6.9,-,N/A,,Clear,30,2012-10-10 03:35:00
10:55 PM,44.6,30.2,57,30.16,10.0,NE,6.9,-,N/A,,Clear,40,2012-10-10 03:55:00
11:15 PM,44.6,28.4,53,30.17,10.0,NNE,5.8,-,N/A,,Clear,30,2012-10-10 04:15:00
11:35 PM,42.8,28.4,57,30.19,10.0,North,6.9,-,N/A,,Clear,10,2012-10-10 04:35:00
11:55 PM,42.8,26.6,53,30.19,10.0,North,5.8,-,N/A,,Clear,360,2012-10-10 04:55:00